Location: Gad�tanya
(48.0500°N, 20.8500°E)
Time: 11:48:29
(UTC+00:00)

BREEZE-M DEB (TANK) - Pass Details

Date: 05 July 2020
Orbit: 328 x 12048 km, 49.6° (Epoch: 14 August)

Event Time Altitude Azimuth Distance (km) Brightness Sun altitude
Rises 22:36:40 0° 288° (WNW) 2,915 6.1 -19.3°
Reaches altitude 10° 22:39:26 10° 280° (W) 1,527 4.5 -19.3°
Enters shadow 22:40:28 18° 270° (W) 1,038 3.5 -19.3°
